Middletown, OH

6:24 PM EDT on March 26, 2017 (GMT -0400)
Hook Field Municipal

Weather History for KMWO - November, 2013

Change the Weather History Date:

Thursday, November 21, 2013

  Actual Average (KFFO) Record (KFFO)
Temperature  
Mean Temperature 48 °F -  
Max Temperature 55 °F 48 °F 66 °F (1999)
Min Temperature 40 °F 31 °F 11 °F (2014)
Degree Days  
Heating Degree Days 18    
Moisture  
Dew Point 37 °F    
Average Humidity 68    
Maximum Humidity 86    
Minimum Humidity 50    
Precipitation  
Precipitation 0.00 in - - ()
Sea Level Pressure  
Sea Level Pressure 30.27 in    
Wind  
Wind Speed 3 mph (SSW)    
Max Wind Speed 10 mph    
Max Gust Speed 17 mph    
Visibility 10 miles    
Events Rain    
Averages and records for this station are not official NWS values.
T = Trace of Precipitation, MM = Missing Value Source: NWS Daily Summary

Daily Weather History Graph

Daily Weather History Graph

Search for Another Location

Airport or City:

Trip Planner

Search our weather history database for the weather conditions in past years. The results will help you decide how hot, cold, wet, or windy it might be!

Date:

Astronomy

Nov. 21, 2013 Rise Set
Actual Time 7:28 AM EST 5:18 PM EST
Civil Twilight 6:59 AM EST 5:47 PM EST
Nautical Twilight 6:26 AM EST 6:20 PM EST
Astronomical Twilight 5:54 AM EST 6:52 PM EST
Moon 8:54 PM EST (11/21) 10:34 AM EST (11/21)
Length of Visible Light 10h 47m
Length of Day
9h 49m
Waning Gibbous, 85% of the Moon is Illuminated
Nov 21
Waning Gibbous
Nov 25
Last Quarter
Dec 2
New
Dec 9
First Quarter
Dec 17
Full

Hourly Weather History & Observations

Time (EST) Temp. Windchill Dew Point Humidity Pressure Visibility Wind Dir Wind Speed Gust Speed Precip Events Conditions
12:15 AM 41.4 °F 39.4 °F 28.6 °F 60% 30.25 in 10.0 mi South 3.5 mph - N/A   Scattered Clouds
12:35 AM 41.2 °F 38.2 °F 28.4 °F 60% 30.26 in 10.0 mi South 4.6 mph - N/A   Clear
12:55 AM 42.3 °F - 28.2 °F 58% 30.26 in 10.0 mi Calm Calm - N/A   Scattered Clouds
1:15 AM 42.3 °F - 28.2 °F 58% 30.26 in 10.0 mi Calm Calm - N/A   Mostly Cloudy
1:35 AM 44.4 °F - 29.5 °F 56% 30.26 in 10.0 mi Calm Calm - N/A   Overcast
1:55 AM 45.1 °F - 30.0 °F 55% 30.26 in 10.0 mi Calm Calm - N/A   Overcast
2:15 AM 45.1 °F - 28.9 °F 53% 30.27 in 10.0 mi Calm Calm - N/A   Overcast
2:35 AM 45.1 °F 42.8 °F 30.0 °F 55% 30.28 in 10.0 mi SSW 4.6 mph - N/A   Overcast
2:55 AM 45.1 °F 43.7 °F 30.9 °F 58% 30.27 in 10.0 mi South 3.5 mph - N/A   Unknown
3:15 AM 45.1 °F - 30.9 °F 58% 30.28 in 10.0 mi Calm Calm - N/A   Overcast
3:35 AM 42.8 °F - 31.3 °F 64% 30.28 in 10.0 mi Calm Calm - N/A   Unknown
3:55 AM 42.8 °F - 32.2 °F 66% 30.28 in 10.0 mi Calm Calm - N/A   Overcast
4:15 AM 41.4 °F - 35.1 °F 78% 30.30 in 10.0 mi Calm Calm - N/A   Overcast
4:35 AM 41.4 °F - 35.1 °F 78% 30.30 in 10.0 mi Calm Calm - N/A   Unknown
4:55 AM 40.6 °F - 35.8 °F 83% 30.31 in 7.0 mi Calm Calm - N/A   Unknown
5:15 AM 40.6 °F - 36.1 °F 84% 30.31 in 7.0 mi Calm Calm - N/A   Unknown
5:35 AM 40.3 °F - 36.1 °F 85% 30.30 in 5.0 mi Calm Calm - N/A   Unknown
5:55 AM 40.3 °F 36.3 °F 36.5 °F 86% 30.29 in 10.0 mi NE 5.8 mph - N/A   Overcast
6:15 AM 40.3 °F 37.1 °F 35.8 °F 84% 30.28 in 10.0 mi ENE 4.6 mph - N/A   Overcast
6:35 AM 40.3 °F - 35.6 °F 83% 30.30 in 10.0 mi Calm Calm - N/A   Mostly Cloudy
6:55 AM 40.5 °F - 35.6 °F 83% 30.30 in 10.0 mi Calm Calm - N/A   Overcast
7:15 AM 40.1 °F - 35.6 °F 84% 30.31 in 10.0 mi Calm Calm - N/A   Overcast
7:35 AM 40.5 °F - 35.1 °F 81% 30.32 in 10.0 mi Calm Calm - N/A   Overcast
7:55 AM 40.1 °F - 35.6 °F 84% 30.33 in 10.0 mi Calm Calm - N/A   Mostly Cloudy
8:15 AM 40.3 °F - 35.6 °F 83% 30.33 in 10.0 mi Calm Calm - N/A   Scattered Clouds
8:35 AM 40.8 °F - 36.3 °F 84% 30.33 in 10.0 mi Calm Calm - N/A   Scattered Clouds
8:55 AM 41.4 °F - 37.2 °F 85% 30.33 in 10.0 mi Calm Calm - N/A   Mostly Cloudy
9:15 AM 42.8 °F - 37.0 °F 80% 30.34 in 10.0 mi Calm Calm - N/A   Scattered Clouds
9:35 AM 47.7 °F - 36.7 °F 66% 30.33 in 10.0 mi SSE 3.5 mph - N/A   Mostly Cloudy
9:55 AM 47.7 °F - 32.4 °F 55% 30.33 in 10.0 mi SSE 3.5 mph - N/A   Scattered Clouds
10:15 AM 47.7 °F - 32.4 °F 55% 30.34 in 10.0 mi South 5.8 mph - N/A   Clear
10:35 AM 49.8 °F - 33.1 °F 53% 30.33 in 10.0 mi SSE 6.9 mph - N/A   Clear
10:55 AM 52.7 °F - 34.7 °F 50% 30.33 in 10.0 mi SSW 6.9 mph - N/A   Clear
11:15 AM 52.7 °F - 34.3 °F 50% 30.32 in 10.0 mi South 9.2 mph - N/A   Clear
11:35 AM 52.7 °F - 34.9 °F 51% 30.32 in 10.0 mi SSW 10.4 mph 17.3 mph N/A   Clear
11:55 AM 52.7 °F - 35.6 °F 52% 30.30 in 10.0 mi SSW 10.4 mph 16.1 mph N/A   Clear
12:15 PM 53.6 °F - 35.8 °F 51% 30.29 in 10.0 mi South 10.4 mph 16.1 mph N/A   Clear
12:35 PM 54.9 °F - 37.4 °F 52% 30.28 in 10.0 mi South 10.4 mph - N/A   Clear
12:55 PM 55.4 °F - 37.9 °F 52% 30.28 in 10.0 mi SW 8.1 mph - N/A   Clear
1:15 PM 55.4 °F - 39.9 °F 56% 30.27 in 10.0 mi SSW 10.4 mph - N/A   Mostly Cloudy
1:35 PM 55.4 °F - 40.8 °F 58% 30.25 in 10.0 mi WSW 8.1 mph 16.1 mph N/A   Scattered Clouds
1:55 PM 55.6 °F - 41.0 °F 58% 30.23 in 10.0 mi South 10.4 mph - N/A   Scattered Clouds
2:15 PM 55.4 °F - 40.6 °F 58% 30.23 in 10.0 mi SSW 10.4 mph - N/A   Mostly Cloudy
2:35 PM 55.4 °F - 40.1 °F 56% 30.23 in 10.0 mi SW 6.9 mph - N/A   Overcast
2:55 PM 55.4 °F - 40.3 °F 57% 30.22 in 10.0 mi South 8.1 mph - N/A   Scattered Clouds
3:15 PM 55.4 °F - 40.3 °F 57% 30.21 in 10.0 mi South 6.9 mph - N/A   Clear
3:35 PM 55.4 °F - 40.5 °F 57% 30.22 in 10.0 mi SSW 8.1 mph - N/A   Clear
3:55 PM 55.4 °F - 41.2 °F 59% 30.22 in 10.0 mi WSW 5.8 mph - N/A   Mostly Cloudy
4:15 PM 55.4 °F - 40.8 °F 58% 30.23 in 10.0 mi South 10.4 mph - N/A   Overcast
4:35 PM 55.4 °F - 41.0 °F 58% 30.23 in 10.0 mi South 6.9 mph - N/A   Overcast
4:55 PM 54.7 °F - 40.1 °F 58% 30.23 in 10.0 mi South 6.9 mph - N/A   Overcast
5:15 PM 54.0 °F - 40.1 °F 59% 30.23 in 10.0 mi South 5.8 mph - N/A   Overcast
5:35 PM 53.8 °F - 40.1 °F 60% 30.25 in 10.0 mi SSW 6.9 mph - N/A   Overcast
5:55 PM 52.7 °F - 39.6 °F 61% 30.25 in 10.0 mi SW 3.5 mph - N/A   Overcast
6:15 PM 52.7 °F - 40.1 °F 62% 30.25 in 10.0 mi SW 3.5 mph - N/A   Overcast
6:35 PM 52.7 °F - 40.6 °F 64% 30.26 in 10.0 mi SW 4.6 mph - N/A   Overcast
6:55 PM 52.7 °F - 41.9 °F 67% 30.26 in 10.0 mi Calm Calm - N/A   Overcast
7:15 PM 52.7 °F - 41.9 °F 67% 30.25 in 10.0 mi Calm Calm - N/A   Light Drizzle
7:35 PM 52.7 °F - 41.9 °F 67% 30.23 in 10.0 mi Calm Calm - N/A Rain Light Rain
7:55 PM 50.2 °F - 43.2 °F 77% 30.23 in 10.0 mi Calm Calm - N/A   Light Drizzle
8:15 PM 49.1 °F - 43.2 °F 80% 30.23 in 10.0 mi Calm Calm - N/A   Light Drizzle
8:35 PM 47.7 °F - 42.8 °F 83% 30.23 in 10.0 mi Calm Calm - N/A   Light Drizzle
8:55 PM 47.7 °F - 43.0 °F 84% 30.23 in 10.0 mi Calm Calm - N/A   Overcast
9:15 PM 47.7 °F - 43.3 °F 85% 30.23 in 10.0 mi Calm Calm - N/A   Light Drizzle
9:35 PM 47.7 °F - 43.7 °F 86% 30.24 in 10.0 mi Calm Calm - N/A   Overcast
9:55 PM 47.7 °F - 43.3 °F 85% 30.23 in 10.0 mi Calm Calm - N/A   Drizzle
10:15 PM 48.0 °F - 43.5 °F 84% 30.23 in 10.0 mi Calm Calm - N/A   Overcast
10:35 PM 47.8 °F - 43.5 °F 85% 30.22 in 10.0 mi Calm Calm - N/A   Overcast
10:55 PM 49.1 °F - 44.2 °F 83% 30.22 in 10.0 mi Calm Calm - N/A   Overcast
11:15 PM 49.5 °F - 44.4 °F 83% 30.22 in 10.0 mi Calm Calm - N/A   Overcast
11:35 PM 49.3 °F - 44.2 °F 83% 30.23 in 10.0 mi Calm Calm - N/A   Overcast
11:55 PM 49.1 °F - 44.2 °F 83% 30.22 in 10.0 mi Calm Calm - N/A   Overcast